Terminal Aerodrome Forecast
Issued by NWS

Current Version | Previous Version | Text Only | Print | Product List | Glossary Off
Versions: 1 2 3 4 5 6 7 8 9 10 11 12 13 14 15 16 17 18 19 20 21 22 23 24 25 26 27 28

000
FTUS41 KRNK 261729
TAFLWB
TAF
KLWB 261729Z 2618/2718 24004KT P6SM SCT250
     FM270000 00000KT P6SM BKN180
     FM271600 21003KT P6SM SCT250=

USA.gov is the U.S. government's official web portal to all federal, state and local government web resources and services.